Location: South Tamworth Observatory
(43.8246°N, 71.3026°W)
Time: 12:11:36
(UTC-04:00)

Amateur Radio Satellites - All Passes

Search period start: 30 August 2014 11:41
Search period end: 31 August 2014 11:41
Location: South Tamworth Observatory, 43.8246°N, 71.3026°W

Satellite Date Start Highest point End Downlink Frequencies (MHz)
Time Altitude Azimuth
Oscar 19 30 Aug 12:13:50 12:17:35 21° 62° (ENE) 12:21:21 437.125 CW, 437.150 USB
ISS 30 Aug 12:14:45 12:17:56 40° 337° (NNW) 12:21:06 145.800 FM
SO-50 30 Aug 12:14:56 12:19:40 59° 52° (NE) 12:24:27 436.795 FM
MaSat-1 30 Aug 12:17:29 12:20:27 16° 100° (E) 12:23:30 437.345 MHz
Oscar 11 30 Aug 12:18:53 12:19:51 11° 301° (WNW) 12:20:48 145.825 FM, Beacon 2401.500 USB
UOSAT-12 30 Aug 12:38:11 12:41:00 15° 33° (NNE) 12:43:49 437.025 FM, 437.400 FM
FUNcube-1 30 Aug 12:41:46 12:44:20 15° 298° (WNW) 12:46:56 145.950 - 145.970 MHz USB
HO-68 30 Aug 12:43:08 12:45:05 11° 315° (NW) 12:47:01 435.675 MHz FM
ITAMSAT 1 30 Aug 12:45:26 12:48:55 19° 60° (ENE) 12:52:23 435.822 SSB
AO-Echo 30 Aug 12:45:28 12:48:52 19° 63° (ENE) 12:52:13 ?
Oscar 16 30 Aug 12:47:19 12:52:06 41° 68° (ENE) 12:56:57 437.025 USB, Beacon 2401.1428
Uribyol 2 30 Aug 12:54:53 12:58:52 23° 63° (ENE) 13:02:53 436.500 FM
AO-27 30 Aug 13:13:02 13:17:34 32° 66° (ENE) 13:22:07 436.795 MHz FM
JAS-1B 30 Aug 13:16:29 13:25:36 48° 65° (ENE) 13:33:46 435.800 - 435.900 CW/SSB
Gurwin Techsat 1B 30 Aug 13:38:51 13:43:08 26° 64° (ENE) 13:47:26 435.225 FM
RS-15 30 Aug 13:47:43 13:56:41 27° 16° (NNE) 14:05:47 29.354 - 29.394 USB, Beacon 29.352 USB
Oscar 19 30 Aug 13:51:26 13:56:30 57° 259° (W) 14:01:37 437.125 CW, 437.150 USB
MaSat-1 30 Aug 13:51:54 13:56:50 71° 299° (WNW) 14:02:02 437.345 MHz
ISS 30 Aug 13:52:40 13:55:17 21° 357° (N) 13:57:54 145.800 FM
SO-50 30 Aug 13:56:26 13:59:51 19° 249° (WSW) 14:03:16 436.795 FM
AO-7 30 Aug 13:57:07 14:02:22 19° 46° (NE) 14:07:37 29.400 - 29.500 MHz
UOSAT-12 30 Aug 14:17:14 14:21:59 75° 54° (NE) 14:26:40 437.025 FM, 437.400 FM
AO-Echo 30 Aug 14:22:17 14:27:15 58° 259° (W) 14:32:05 ?
ITAMSAT 1 30 Aug 14:22:47 14:27:54 64° 258° (WSW) 14:33:03 435.822 SSB
Oscar 16 30 Aug 14:27:17 14:31:35 27° 266° (W) 14:35:56 437.025 USB, Beacon 2401.1428
TMSAT-1 30 Aug 14:29:40 14:34:45 51° 70° (ENE) 14:39:53 436.925 FM
Uribyol 2 30 Aug 14:33:04 14:38:02 49° 260° (W) 14:43:03 436.500 FM
AO-27 30 Aug 14:52:19 14:57:01 34° 263° (W) 15:01:44 436.795 MHz FM
JAS-1B 30 Aug 15:06:36 15:15:59 49° 262° (W) 15:24:31 435.800 - 435.900 CW/SSB
Uosat F 30 Aug 15:13:11 15:17:20 27° 65° (ENE) 15:21:29 435.120 FM
Gurwin Techsat 1B 30 Aug 15:17:46 15:22:51 46° 261° (W) 15:27:57 435.225 FM
ISS 30 Aug 15:29:45 15:32:44 29° 17° (NNE) 15:35:43 145.800 FM
MaSat-1 30 Aug 15:32:07 15:34:49 14° 319° (NW) 15:37:34 437.345 MHz
AO-7 30 Aug 15:45:30 15:53:46 72° 67° (ENE) 16:02:04 29.400 - 29.500 MHz
UOSAT-12 30 Aug 15:59:02 16:01:32 14° 252° (WSW) 16:04:00 437.025 FM, 437.400 FM
JAS-2 30 Aug 16:00:54 16:02:05 11° 56° (NE) 16:03:15 435.800 - 435.900 CW/SSB, 435.910 FM
RS-15 30 Aug 16:01:01 16:11:56 60° 47° (NE) 16:23:13 29.354 - 29.394 USB, Beacon 29.352 USB
TMSAT-1 30 Aug 16:10:57 16:14:58 22° 268° (W) 16:19:00 436.925 FM
Oscar 10/S400 30 Aug 16:14:23 16:28:07 22° 143° (SE) 16:43:53 145.825 - 145.975 CW/USB, Beacon 145.810 USB
OPAL 30 Aug 16:31:59 16:36:16 25° 96° (E) 16:40:31 ?
Hamsat 30 Aug 16:34:36 16:36:57 15° 62° (ENE) 16:39:19 145.90 MHz
Sapphire 30 Aug 16:38:46 16:43:41 37° 112° (ESE) 16:48:38 437.095 MHz 1200 baud AX-25 AFSK
Uosat F 30 Aug 16:51:16 16:55:56 39° 262° (W) 17:00:39 435.120 FM
ISS 30 Aug 17:06:22 17:09:40 62° 216° (SW) 17:12:57 145.800 FM
PCSat 30 Aug 17:07:42 17:13:04 70° 117° (ESE) 17:18:29 145.825 MHz
JAS-2 30 Aug 17:40:16 17:46:22 69° 73° (ENE) 17:51:51 435.800 - 435.900 CW/SSB, 435.910 FM
AO-7 30 Aug 17:40:31 17:47:13 27° 267° (W) 17:53:58 29.400 - 29.500 MHz
Hamsat 30 Aug 18:08:09 18:12:25 61° 260° (W) 18:16:45 145.90 MHz
OPAL 30 Aug 18:10:21 18:15:19 45° 293° (WNW) 18:20:15 ?
RS-15 30 Aug 18:13:47 18:24:01 45° 250° (WSW) 18:34:39 29.354 - 29.394 USB, Beacon 29.352 USB
STRAND 1 30 Aug 18:16:45 18:18:59 13° 89° (E) 18:21:12 ?
Sapphire 30 Aug 18:22:08 18:27:06 36° 311° (NW) 18:32:07 437.095 MHz 1200 baud AX-25 AFSK
PCSat 30 Aug 18:52:47 18:57:01 23° 318° (NW) 19:01:17 145.825 MHz
SO-67 30 Aug 19:09:46 19:13:14 79° 258° (WSW) 19:16:43 435.3500 MHz FM
JAS-2 30 Aug 19:27:56 19:31:51 18° 268° (W) 19:35:34 435.800 - 435.900 CW/SSB, 435.910 FM
HO-68 30 Aug 19:35:14 19:41:13 30° 59° (ENE) 19:47:12 435.675 MHz FM
STRAND 1 30 Aug 19:53:39 19:58:47 80° 286° (WNW) 20:03:53 ?
UKube-1 30 Aug 19:56:41 19:58:36 13° 60° (ENE) 20:00:32 145.840 MHz, 145.915 MHz
HO-68 30 Aug 21:21:28 21:28:30 60° 258° (WSW) 21:35:34 435.675 MHz FM
UKube-1 30 Aug 21:29:54 21:34:14 72° 257° (WSW) 21:38:36 145.840 MHz, 145.915 MHz
STRAND 1 30 Aug 21:35:23 21:37:08 12° 304° (NW) 21:38:53 ?
Oscar 11 30 Aug 21:36:03 21:40:22 81° 76° (ENE) 21:44:45 145.825 FM, Beacon 2401.500 USB
FUNcube-1 30 Aug 22:01:49 22:05:55 58° 73° (ENE) 22:10:07 145.950 - 145.970 MHz USB
MaSat-1 30 Aug 22:08:38 22:13:04 39° 55° (NE) 22:16:56 437.345 MHz
Saudisat 1A 30 Aug 22:21:14 22:25:16 37° 117° (ESE) 22:29:21 436.775 MHz
AO-40 30 Aug 22:31:36 01:15:43 30° 198° (SSW) 05:59:04 Beacon 2401.320
KITSAT 1 30 Aug 22:56:35 23:03:57 41° 110° (ESE) 23:11:20 435.175 FM
FUNcube-1 30 Aug 23:40:50 23:42:44 13° 271° (W) 23:44:39 145.950 - 145.970 MHz USB
Sapphire 30 Aug 23:43:58 23:45:12 11° 29° (NNE) 23:46:26 437.095 MHz 1200 baud AX-25 AFSK
MaSat-1 30 Aug 23:46:17 23:49:45 22° 257° (WSW) 23:52:52 437.345 MHz
Saudisat 1A 31 Aug 00:01:02 00:04:55 29° 315° (NW) 00:08:49 436.775 MHz
PCSat 31 Aug 00:12:06 00:15:25 16° 36° (NE) 00:18:44 145.825 MHz
KITSAT 1 31 Aug 00:51:18 00:59:10 53° 311° (NW) 01:07:05 435.175 FM
Oscar 16 31 Aug 00:59:29 01:01:42 13° 88° (E) 01:03:54 437.025 USB, Beacon 2401.1428
Sapphire 31 Aug 01:25:00 01:30:10 42° 51° (NE) 01:35:17 437.095 MHz 1200 baud AX-25 AFSK
PCSat 31 Aug 01:54:22 01:59:49 74° 58° (ENE) 02:05:13 145.825 MHz
Oscar 19 31 Aug 02:01:39 02:06:40 46° 99° (E) 02:11:38 437.125 CW, 437.150 USB
AO-Echo 31 Aug 02:28:13 02:32:37 38° 98° (E) 02:37:00 ?
SO-50 31 Aug 02:34:05 02:35:58 12° 108° (ESE) 02:37:51 436.795 FM
ITAMSAT 1 31 Aug 02:34:22 02:39:16 41° 98° (E) 02:44:08 435.822 SSB
Oscar 16 31 Aug 02:36:28 02:41:42 83° 285° (WNW) 02:46:53 437.025 USB, Beacon 2401.1428
Uribyol 2 31 Aug 02:44:11 02:49:16 53° 100° (E) 02:54:21 436.500 FM
TMSAT-1 31 Aug 02:45:06 02:48:41 18° 91° (E) 02:52:15 436.925 FM
KITSAT 1 31 Aug 02:51:08 02:56:40 19° 337° (NNW) 03:02:14 435.175 FM
JAS-1B 31 Aug 02:52:28 02:59:08 53° 99° (E) 03:04:53 435.800 - 435.900 CW/SSB
AO-27 31 Aug 03:03:17 03:08:30 76° 103° (ESE) 03:13:41 436.795 MHz FM
Sapphire 31 Aug 03:08:42 03:13:27 31° 250° (WSW) 03:18:10 437.095 MHz 1200 baud AX-25 AFSK
Gurwin Techsat 1B 31 Aug 03:32:17 03:37:35 65° 102° (ESE) 03:42:51 435.225 FM
PCSat 31 Aug 03:39:15 03:42:35 17° 256° (WSW) 03:45:54 145.825 MHz
Oscar 19 31 Aug 03:41:35 03:45:44 25° 297° (WNW) 03:49:51 437.125 CW, 437.150 USB
AO-7 31 Aug 03:46:56 03:52:45 20° 90° (E) 03:58:30 29.400 - 29.500 MHz
OPAL 31 Aug 03:47:56 03:52:50 51° 68° (ENE) 03:57:49 ?
AO-Echo 31 Aug 04:07:27 04:11:12 24° 295° (WNW) 04:14:57 ?
SO-50 31 Aug 04:11:21 04:15:50 78° 306° (NW) 04:20:27 436.795 FM
ITAMSAT 1 31 Aug 04:14:15 04:18:34 27° 296° (WNW) 04:22:53 435.822 SSB
Oscar 16 31 Aug 04:18:06 04:20:13 13° 303° (WNW) 04:22:21 437.025 USB, Beacon 2401.1428
TMSAT-1 31 Aug 04:23:48 04:29:02 61° 288° (WNW) 04:34:14 436.925 FM
Uribyol 2 31 Aug 04:24:29 04:28:22 22° 298° (WNW) 04:32:16 436.500 FM
UOSAT-12 31 Aug 04:31:30 04:34:18 16° 109° (ESE) 04:37:08 437.025 FM, 437.400 FM
JAS-1B 31 Aug 04:43:41 04:49:19 27° 302° (WNW) 04:54:19 435.800 - 435.900 CW/SSB
AO-27 31 Aug 04:44:20 04:47:23 16° 301° (WNW) 04:50:26 436.795 MHz FM
KITSAT 1 31 Aug 04:51:40 04:55:56 15° 8° (N) 05:00:11 435.175 FM
Uosat F 31 Aug 04:57:10 05:02:06 56° 101° (E) 05:07:00 435.120 FM
Saudisat 1A 31 Aug 05:09:26 05:09:59 10° 28° (NNE) 05:10:33 436.775 MHz
Oscar 10/S400 31 Aug 05:12:06 06:08:41 18° 252° (WSW) 07:58:50 145.825 - 145.975 CW/USB, Beacon 145.810 USB
Gurwin Techsat 1B 31 Aug 05:13:25 05:17:02 19° 299° (WNW) 05:20:39 435.225 FM
OPAL 31 Aug 05:28:14 05:32:00 21° 265° (W) 05:35:51 ?
STRAND 1 31 Aug 05:33:21 05:37:17 23° 63° (ENE) 05:41:14 ?
AO-7 31 Aug 05:38:10 05:46:30 87° 290° (WNW) 05:54:47 29.400 - 29.500 MHz
Hamsat 31 Aug 05:53:14 05:56:37 22° 93° (E) 05:59:59 145.90 MHz
SO-50 31 Aug 05:54:31 05:57:12 15° 326° (NNW) 05:59:55 436.795 FM
UOSAT-12 31 Aug 06:09:18 06:13:55 66° 307° (NW) 06:18:37 437.025 FM, 437.400 FM
RS-15 31 Aug 06:28:33 06:37:22 29° 104° (ESE) 06:46:03 29.354 - 29.394 USB, Beacon 29.352 USB
JAS-2 31 Aug 06:32:08 06:37:14 50° 100° (E) 06:42:42 435.800 - 435.900 CW/SSB, 435.910 FM
Uosat F 31 Aug 06:36:56 06:40:28 20° 299° (WNW) 06:44:00 435.120 FM
Saudisat 1A 31 Aug 06:46:26 06:50:42 45° 50° (NE) 06:54:56 436.775 MHz
KITSAT 1 31 Aug 06:47:36 06:54:32 30° 37° (NE) 07:01:25 435.175 FM
STRAND 1 31 Aug 07:11:15 07:16:10 48° 260° (W) 07:21:06 ?
Hamsat 31 Aug 07:28:42 07:32:41 36° 290° (WNW) 07:36:37 145.90 MHz
AO-7 31 Aug 07:32:15 07:38:13 23° 310° (NW) 07:44:10 29.400 - 29.500 MHz
UOSAT-12 31 Aug 07:52:27 07:54:59 14° 328° (NNW) 07:57:32 437.025 FM, 437.400 FM
SO-67 31 Aug 08:05:09 08:08:38 78° 284° (WNW) 08:12:04 435.3500 MHz FM
JAS-2 31 Aug 08:18:08 08:22:06 23° 297° (WNW) 08:26:15 435.800 - 435.900 CW/SSB, 435.910 FM
Saudisat 1A 31 Aug 08:26:37 08:30:00 22° 247° (WSW) 08:33:22 436.775 MHz
RS-15 31 Aug 08:37:26 08:48:31 80° 306° (NW) 08:59:31 29.354 - 29.394 USB, Beacon 29.352 USB
KITSAT 1 31 Aug 08:42:46 08:50:53 84° 240° (WSW) 08:58:57 435.175 FM
HO-68 31 Aug 08:48:15 08:53:58 25° 93° (E) 08:59:40 435.675 MHz FM
UKube-1 31 Aug 09:17:53 09:20:47 17° 93° (E) 09:23:39 145.840 MHz, 145.915 MHz
Oscar 11 31 Aug 09:24:02 09:26:14 14° 90° (E) 09:28:25 145.825 FM, Beacon 2401.500 USB
ISS 31 Aug 09:50:20 09:52:52 20° 135° (SE) 09:55:24 145.800 FM
FUNcube-1 31 Aug 09:51:42 09:53:07 11° 88° (E) 09:54:32 145.950 - 145.970 MHz USB
HO-68 31 Aug 10:35:06 10:42:11 66° 291° (WNW) 10:49:14 435.675 MHz FM
KITSAT 1 31 Aug 10:40:08 10:45:05 18° 259° (W) 10:50:02 435.175 FM
UKube-1 31 Aug 10:53:04 10:57:13 46° 289° (WNW) 11:01:22 145.840 MHz, 145.915 MHz
RS-15 31 Aug 10:53:20 11:02:49 32° 334° (NNW) 11:12:21 29.354 - 29.394 USB, Beacon 29.352 USB
Oscar 11 31 Aug 10:58:29 11:02:48 59° 287° (WNW) 11:07:05 145.825 FM, Beacon 2401.500 USB
SO-50 31 Aug 11:01:43 11:05:32 23° 40° (NE) 11:09:23 436.795 FM
FUNcube-1 31 Aug 11:25:28 11:30:01 77° 285° (WNW) 11:34:36 145.950 - 145.970 MHz USB
ISS 31 Aug 11:26:04 11:29:21 59° 332° (NNW) 11:32:39 145.800 FM
